(107724) = 1972 GX1 = 2001 FO25

Discovered at Socorro on 2001-03-18 by LINEAR.

Orbit

Orbit type: Main Belt

Note: WebGL enabled browser required.

epoch2023-09-13.0
epoch JD2460200.5
perihelion date2022-07-24.20840
perihelion JD2459784.70840
argument of perihelion (°)70.95648
ascending node (°)192.34910
inclination (°)11.38564
eccentricity0.2584765
perihelion distance (AU)1.9139787
Tisserand w.r.t. Jupiter3.3
ΔV w.r.t. Earth (km/sec)9.3
semimajor axis (AU)2.5811436
mean anomaly (°)98.82375
mean daily motion (°/day)0.23767620
aphelion distance (AU)3.248
period (years)4.15
P-vector [x]-0.12055245
P-vector [y]-0.96878249
P-vector [z]-0.21662778
Q-vector [x]0.99180874
Q-vector [y]-0.12682155
Q-vector [z]0.01522207
absolute magnitude15.71
phase slope0.15
uncertainty0
referenceMPEC 2024-A158
observations used1085
oppositions18
arc length (days)18906
first opposition used1972
last opposition used2024
residual rms (arc-secs)0.57
perturbers coarse indicatorM-v
perturbers precise indicator003Ek
first observation date used1972-04-09.0
last observation date used2024-01-13.0
computer nameMPCLINUX
JD of orbit computation2456937.503453
perihelion JD uncertainty (days)4.9022E-05
argument of perihelion uncertainty (°)2.4803E-05
ascending node uncertainty (°)2.0356E-05
inclination uncertainty (°)5.4578E-06
eccentricity uncertainty 3.2220E-08
perihelion distance uncertainty (AU)8.3122E-08
Minimum Orbit Intersection Distances (in AU)
for orbit epoch: 2460200.5, reference: E2024-AF8
Mercury1.46636
Venus1.20843
Earth0.93431
Mars0.47347
Jupiter1.92916
Saturn5.87506
Uranus15.6718
Neptune26.7462

Observations

1104 total observations over interval: 1972 04 09.16851 – 2024 01 13.131549
These data are available for download (format description).

Date (UT) J2000 RA J2000 Dec Magn Location Ref
1972 04 09.16851 12 18 27.71 -02 26 45.1 18.5   805 – Santiago-Cerro El Roble MPC 3864
1972 04 09.19282 12 18 26.74 -02 26 31.3   805 – Santiago-Cerro El Roble MPC 3864
1994 10 27.25595 02 38 23.17 +07 44 06.4   691 – Steward Observatory, Kitt Peak-Spacewatch MPS 175881
1994 10 27.27603 02 38 22.06 +07 43 57.5 19.1 V 691 – Steward Observatory, Kitt Peak-Spacewatch MPS 175881
1994 10 27.29623 02 38 20.99 +07 43 48.8   691 – Steward Observatory, Kitt Peak-Spacewatch MPS 175881
1994 10 31.31694 02 34 47.88 +07 14 35.2 20.0 V 691 – Steward Observatory, Kitt Peak-Spacewatch MPS 79852
1994 10 31.33381 02 34 46.98 +07 14 28.7 18.8 V 691 – Steward Observatory, Kitt Peak-Spacewatch MPS 79852
1994 10 31.35110 02 34 46.03 +07 14 20.5 19.7 V 691 – Steward Observatory, Kitt Peak-Spacewatch MPS 79852
2001 03 18.31330 12 05 13.88 -04 58 42.0 18.7   704 – Lincoln Laboratory ETS, New Mexico MPS 28265
2001 03 18.32640 12 05 13.34 -04 58 33.0 18.8   704 – Lincoln Laboratory ETS, New Mexico MPS 28265
2001 03 18.34010 12 05 12.61 -04 58 24.6 18.6   704 – Lincoln Laboratory ETS, New Mexico MPS 28265
2001 03 18.35358 12 05 11.90 -04 58 15.8 18.6   704 – Lincoln Laboratory ETS, New Mexico MPS 28265
2001 03 18.36756 12 05 11.29 -04 58 06.6 18.5   704 – Lincoln Laboratory ETS, New Mexico MPS 28265
2001 03 19.23839 12 04 30.64 -04 48 43.2 17.9 R 699 – Lowell Observatory-LONEOS MPS 28265
2001 03 19.27498 12 04 28.80 -04 48 19.4   699 – Lowell Observatory-LONEOS MPS 28265
2001 03 19.31164 12 04 27.02 -04 47 55.3   699 – Lowell Observatory-LONEOS MPS 28265
2001 03 19.34842 12 04 25.19 -04 47 31.6   699 – Lowell Observatory-LONEOS MPS 28265
2001 03 23.29781 12 01 16.32 -04 03 42.1 18.3   704 – Lincoln Laboratory ETS, New Mexico MPS 28265
2001 03 23.31000 12 01 15.63 -04 03 34.1 17.7   704 – Lincoln Laboratory ETS, New Mexico MPS 28265
2001 03 23.31011 12 01 15.65 -04 03 33.8 19.2   704 – Lincoln Laboratory ETS, New Mexico MPS 28265
2001 03 23.32279 12 01 15.05 -04 03 25.0 17.6   704 – Lincoln Laboratory ETS, New Mexico MPS 28265
2001 03 23.32290 12 01 15.05 -04 03 24.5 18.6   704 – Lincoln Laboratory ETS, New Mexico MPS 28265
2001 03 23.33558 12 01 14.36 -04 03 16.8 17.5   704 – Lincoln Laboratory ETS, New Mexico MPS 28265
2001 03 23.33569 12 01 14.34 -04 03 15.4 18.6   704 – Lincoln Laboratory ETS, New Mexico MPS 28265
2001 03 23.34849 12 01 13.64 -04 03 07.4 18.2   704 – Lincoln Laboratory ETS, New Mexico MPS 28265
2001 03 23.34860 12 01 13.67 -04 03 07.8 19.1   704 – Lincoln Laboratory ETS, New Mexico MPS 28265
2001 03 24.25498 12 00 30.20 -03 52 50.6 18.3   704 – Lincoln Laboratory ETS, New Mexico MPS 28265
2001 03 24.26952 12 00 29.47 -03 52 39.6 19.8   704 – Lincoln Laboratory ETS, New Mexico MPS 28266
2001 03 24.30842 12 00 27.50 -03 52 13.7 19.3   704 – Lincoln Laboratory ETS, New Mexico MPS 28266
2001 03 26.23588 11 58 54.65 -03 30 08.4 18.1   704 – Lincoln Laboratory ETS, New Mexico MPS 28266
2001 03 26.24870 11 58 54.02 -03 29 59.0 18.4   704 – Lincoln Laboratory ETS, New Mexico MPS 28266
2001 03 26.26104 11 58 53.42 -03 29 50.1 18.5   704 – Lincoln Laboratory ETS, New Mexico MPS 28266
2001 03 26.27339 11 58 52.80 -03 29 41.9 18.4   704 – Lincoln Laboratory ETS, New Mexico MPS 28266
2001 03 26.28577 11 58 52.17 -03 29 33.0 18.1   704 – Lincoln Laboratory ETS, New Mexico MPS 28266
2001 03 28.30301 11 57 15.39 -03 06 13.9 18.4   704 – Lincoln Laboratory ETS, New Mexico MPS 28266
2001 03 28.31767 11 57 14.63 -03 06 02.8 18.5   704 – Lincoln Laboratory ETS, New Mexico MPS 28266
2001 03 28.33301 11 57 13.89 -03 05 51.6 18.6   704 – Lincoln Laboratory ETS, New Mexico MPS 28266
2001 03 28.34795 11 57 13.16 -03 05 42.0 18.1   704 – Lincoln Laboratory ETS, New Mexico MPS 28266
2001 04 01.26204 11 54 09.71 -02 20 06.6 18.6   704 – Lincoln Laboratory ETS, New Mexico MPS 28266
2001 04 01.27645 11 54 09.06 -02 19 55.8 19.0   704 – Lincoln Laboratory ETS, New Mexico MPS 28266
2001 04 01.29086 11 54 08.31 -02 19 46.1 19.4   704 – Lincoln Laboratory ETS, New Mexico MPS 28266
2001 04 01.30538 11 54 07.62 -02 19 35.8 19.6   704 – Lincoln Laboratory ETS, New Mexico MPS 28266
2001 04 01.31982 11 54 06.99 -02 19 26.9 19.1   704 – Lincoln Laboratory ETS, New Mexico MPS 28266
2001 04 18.20803 11 43 25.22 +00 45 18.9 18.0   704 – Lincoln Laboratory ETS, New Mexico MPS 29564
2001 04 18.22118 11 43 24.87 +00 45 26.7 18.8   704 – Lincoln Laboratory ETS, New Mexico MPS 29564
2001 04 18.24732 11 43 24.03 +00 45 43.1 18.7   704 – Lincoln Laboratory ETS, New Mexico MPS 29564
2001 04 18.26039 11 43 23.63 +00 45 49.3 19.0   704 – Lincoln Laboratory ETS, New Mexico MPS 29564
2001 05 24.16255 11 45 15.82 +04 06 14.4 18.1   704 – Lincoln Laboratory ETS, New Mexico MPS 31277
2001 05 24.17414 11 45 16.22 +04 06 14.9 19.3   704 – Lincoln Laboratory ETS, New Mexico MPS 31277
2001 05 24.19728 11 45 16.96 +04 06 16.4 19.2   704 – Lincoln Laboratory ETS, New Mexico MPS 31277
2001 05 24.20882 11 45 17.33 +04 06 17.0 19.0   704 – Lincoln Laboratory ETS, New Mexico MPS 31277
2002 09 07.27312 01 07 39.59 +09 18 07.9 19.4   704 – Lincoln Laboratory ETS, New Mexico MPS 63107
2002 09 07.30113 01 07 38.59 +09 17 55.0 19.8   704 – Lincoln Laboratory ETS, New Mexico MPS 63107
2002 09 07.31516 01 07 38.18 +09 17 47.9 19.5   704 – Lincoln Laboratory ETS, New Mexico MPS 63107
2002 10 02.32069 00 49 26.74 +05 33 34.8 19.2   704 – Lincoln Laboratory ETS, New Mexico MPS 63107
2002 10 02.33630 00 49 25.93 +05 33 25.0 19.4   704 – Lincoln Laboratory ETS, New Mexico MPS 63107
2002 10 02.35185 00 49 25.14 +05 33 14.9 19.6   704 – Lincoln Laboratory ETS, New Mexico MPS 63107
2002 10 02.36739 00 49 24.37 +05 33 06.4 19.6   704 – Lincoln Laboratory ETS, New Mexico MPS 63107
2002 10 03.25462 00 48 39.94 +05 24 20.0 18.9   704 – Lincoln Laboratory ETS, New Mexico MPS 63107
2002 10 03.27002 00 48 39.14 +05 24 11.2 19.3   704 – Lincoln Laboratory ETS, New Mexico MPS 63107
2002 10 03.28551 00 48 38.27 +05 24 02.1 19.2   704 – Lincoln Laboratory ETS, New Mexico MPS 63107
2002 10 03.30104 00 48 37.51 +05 23 52.6 19.5   704 – Lincoln Laboratory ETS, New Mexico MPS 63107
2002 10 03.31644 00 48 36.69 +05 23 43.8 19.8   704 – Lincoln Laboratory ETS, New Mexico MPS 63107
2002 10 04.32128 00 47 46.26 +05 13 48.1 19.3 V 291 – LPL/Spacewatch II MPS 63107
2002 10 04.34461 00 47 45.05 +05 13 34.3 19.3 V 291 – LPL/Spacewatch II MPS 63107
2002 10 04.37252 00 47 43.60 +05 13 17.7 19.2 V 291 – LPL/Spacewatch II MPS 63107
2002 10 07.25695 00 45 19.67 +04 44 55.6 19.2   704 – Lincoln Laboratory ETS, New Mexico MPS 63107
2002 10 07.27263 00 45 18.84 +04 44 47.1 18.9   704 – Lincoln Laboratory ETS, New Mexico MPS 63107
2002 10 07.28827 00 45 18.03 +04 44 37.6 19.3   704 – Lincoln Laboratory ETS, New Mexico MPS 63107
2002 10 07.30386 00 45 17.25 +04 44 28.7 19.7   704 – Lincoln Laboratory ETS, New Mexico MPS 63107
2002 10 07.31960 00 45 16.47 +04 44 20.0 19.1   704 – Lincoln Laboratory ETS, New Mexico MPS 63107
2002 10 10.24079 00 42 53.06 +04 15 57.7 19.0   704 – Lincoln Laboratory ETS, New Mexico MPS 63107
2002 10 10.25669 00 42 52.26 +04 15 50.1 19.8   704 – Lincoln Laboratory ETS, New Mexico MPS 63107
2002 10 10.27264 00 42 51.44 +04 15 40.4 19.7   704 – Lincoln Laboratory ETS, New Mexico MPS 63107
2002 10 10.28841 00 42 50.68 +04 15 30.9 19.9   704 – Lincoln Laboratory ETS, New Mexico MPS 63107
2002 10 10.30419 00 42 49.85 +04 15 21.9 19.4   704 – Lincoln Laboratory ETS, New Mexico MPS 63107
2002 10 11.24067 00 42 04.80 +04 06 24.1 19.3   704 – Lincoln Laboratory ETS, New Mexico MPS 63107
2002 10 11.24607 00 42 04.56 +04 06 21.0 19.1   704 – Lincoln Laboratory ETS, New Mexico MPS 63107
2002 10 11.25638 00 42 04.03 +04 06 15.1 19.3   704 – Lincoln Laboratory ETS, New Mexico MPS 63107
2002 10 11.26191 00 42 03.73 +04 06 13.3 19.7   704 – Lincoln Laboratory ETS, New Mexico MPS 63107
2002 10 11.27225 00 42 03.21 +04 06 05.8 19.5   704 – Lincoln Laboratory ETS, New Mexico MPS 63107
2002 10 11.27763 00 42 03.01 +04 06 03.6 19.8   704 – Lincoln Laboratory ETS, New Mexico MPS 63107
2002 10 11.28797 00 42 02.43 +04 05 56.9 19.3   704 – Lincoln Laboratory ETS, New Mexico MPS 63107
